www.pogodaiklimat.ru

АРХИВ ПОГОДЫ в Лос-Анджелесе

Время (UTC), дата Ветер
(напр.,м/с)
 
Видим.   Явления Облачность Т
(С)
Тd
(С)
f
(%)
Тe
(С)
Тes
(С)
Комфортность

P
(гПа)

Po
(гПа)
Тmin
(С)
Tmax
(С)
R
(мм)
SD
(см)
10:53 18.09 В  16 км    2/2 300 м  +18.9  +15.6  81  +21  +21  комфорт  1011.9  1007.5  +18.3  +21.7     
11:53 18.09 В  16 км    2/2 300 м  +18.3  +15.0  81  +19  +19    1012.3  1007.9         
12:53 18.09 В  13 км    2/2 330 м  +18.9  +16.1  84  +20  +20    1012.7  1008.2         
13:53 18.09 В  13 км    2/2 360 м  +20.6  +16.7  78  +24  +24  комфорт  1013.3  1008.9         
14:53 18.09 В  14 км    5/5 360 м  +22.8  +16.7  68  +27  +28  душно  1013.5  1009.2         
15:53 18.09 нст  14 км    5/5 540 м  +22.8  +16.1  66  +27  +29  душно  1013.8  1009.5         
16:53 18.09   16 км    5/5 300 м  +25.0  +16.1  58  +28  +34  жарко  1013.6  1009.2  +18.3  +25.0     
17:53 18.09 З  16 км    2/2 450 м  +25.0  +16.7  60  +29  +32  душно  1013.4  1008.9         
18:53 18.09 З  16 км    2/2 540 м  +25.0  +16.1  58  +28  +33  жарко  1013.0  1008.5         
19:53 18.09 ЮЗ  16 км    2/2 540 м  +25.0  +16.7  60  +29  +33  душно  1012.7  1008.2         
20:53 18.09 З  16 км    ясно  +25.0  +16.7  60  +29  +32  душно  1012.3  1007.9         
21:53 18.09 З  16 км    2/2 1500 м  +24.4  +16.7  62  +28  +30  душно  1011.7  1007.2         
22:53 18.09 З  16 км    2/2 450 м  +23.9  +16.7  64  +27  +29  жарко  1011.4  1006.8  +23.9  +25.6     
23:53 18.09 З  16 км    2/2 450 м  +22.8  +16.7  68  +27  +28  душно  1011.2  1006.8         
00:53 19.09 ЮЗ  16 км    2/2 450 м  +21.7  +17.2  76  +26  +26  душно  1011.0  1006.5         
01:53 19.09 ЮЗ  16 км    2/2 450 м  +21.1  +17.8  81  +25  +25  комфорт  1011.2  1006.8         
02:53 19.09 З  16 км    2/2 450 м  +21.1  +17.8  81  +25  +25  комфорт  1011.4  1007.2         
03:53 19.09 ЮЗ  16 км    2/2 450 м  +21.1  +17.2  78  +25  +25  комфорт  1011.5  1007.2         
04:53 19.09 ЮЗ  16 км    2/2 360 м  +20.6  +17.2  81  +25  +25  комфорт  1011.6  1007.2  +20.6  +23.9     
05:53 19.09 Ю  16 км    2/2 360 м  +20.6  +16.7  78  +24  +24  комфорт  1011.1  1006.8         
06:53 19.09 ЮЗ  16 км    2/2 360 м  +20.6  +16.7  78  +25  +25  комфорт  1011.4  1007.2         
07:53 19.09 Ю  16 км    2/2 360 м  +20.6  +16.7  78  +25  +25  комфорт  1011.9  1007.5         
08:53 19.09   16 км    2/2 420 м  +20.0  +16.7  81  +22  +22  комфорт  1012.0  1007.5         
09:15 19.09 В  16 км    8/8 300 м  +20.0  +16.7  81  +23  +23  комфорт    1007.5         
09:53 19.09 В  16 км    8/8 300 м  +19.4  +15.6  79  +22  +22  комфорт  1011.7  1007.2         
10:53 19.09 В  16 км    8/8 330 м  +18.9  +15.6  81  +20  +20    1011.5  1007.2  +18.3  +21.1     
11:25 19.09 В  16 км    8/8 360 м  +18.9  +16.1  84  +20  +20      1007.2         
11:53 19.09 В  16 км    8/8 360 м  +19.4  +16.1  81  +21  +21  комфорт  1011.4  1007.2         
12:53 19.09 ЮВ  13 км    8/8 360 м  +20.0  +16.7  81  +23  +23  комфорт  1011.8  1007.5         
13:39 19.09 нст  13 км    8/8 420 м  +21.1  +16.7  76  +25  +25  комфорт    1007.5         
13:53 19.09 ЮВ  13 км    8/8 480 м  +21.1  +16.1  73  +24  +24  комфорт  1012.0  1007.5         
14:53 19.09 В  13 км    8/8 480 м  +22.2  +15.6  66  +26  +26  душно  1012.3  1007.9         
15:53 19.09 В  16 км    8/8 510 м  +23.3  +15.0  60  +27  +28  душно  1012.2  1007.9         
16:41 19.09   16 км    8/8 540 м  +23.3  +14.4  57  +27  +29  душно    1007.5         
16:53 19.09 нст  16 км    8/8 540 м  +24.4  +15.0  56  +27  +29  жарко  1012.0  1007.5  +18.9  +24.4     
17:53 19.09 З  16 км    8/8 540 м  +24.4  +15.6  58  +27  +29  жарко  1011.6  1007.2         
18:53 19.09 ЮЗ  16 км    5/5 570 м  +25.6  +15.0  52  +28  +31  жарко  1011.0  1006.5         
19:53 19.09 З  16 км    5/5 570 м  +24.4  +15.0  56  +27  +29  жарко  1010.6  1006.2         
20:53 19.09 З  16 км    2/2 540 м  +24.4  +16.1  60  +28  +30  душно  1010.3  1005.8         
21:53 19.09 З  16 км    5/5 450 м  +23.3  +16.1  64  +28  +30  душно  1010.0  1005.5         
22:53 19.09 З  16 км    2/2 450 м  +22.8  +16.1  66  +27  +28  душно  1009.7  1005.2  +22.8  +25.6     
23:53 19.09 З  16 км    2/2 450 м  +21.7  +16.1  70  +25  +26  комфорт  1009.7  1005.2         
00:53 20.09 ЮЗ  16 км    ясно  +21.1  +16.1  73  +24  +25  комфорт  1009.3  1004.8         
01:53 20.09 ЮЗ  16 км    ясно  +21.1  +15.6  71  +24  +24  комфорт  1009.3  1004.8         
02:53 20.09 З  16 км    ясно  +21.1  +13.9  63  +24  +24  комфорт  1009.6  1005.2         
03:53 20.09 ЮЗ  16 км    ясно  +20.6  +13.9  65  +23  +23  комфорт  1009.6  1005.2         
04:53 20.09 ЮЗ  16 км    2/2 720 м  +20.6  +14.4  68  +24  +24  комфорт  1009.7  1005.2  +20.6  +22.8     
05:53 20.09 ЮЗ  16 км    2/2 360 м  +20.0  +14.4  70  +22  +22  комфорт  1009.8  1005.5         

 

Местоположение метеостанции Los Angeles International Airport: широта 33.9381 долгота -118.3889 высота над уровнем моря 38 м.

В архиве по умолчанию представлена погода в Лос-Анджелесе за последние 1-2 суток. Обновление информации о фактической погоде в базе происходит ежечасно! Архивные данные за месяц целиком и за предыдущие месяцы Вы можете получить, выбрав интересующий диапазон дат из раскрывающегося списка и нажав кнопку "Ввод!".

Внимание! Архив погоды МЕТАР в базе сайта в настоящее время начинается c 1 января 2011 г. Нет смысла пытаться выбрать более раннюю дату.

Внимание! Время в таблицах - всемирное. Для получения местного времени необходимо прибавить поправку, которая в Лос-Анджелесе равна -8 ч.

Ветер - указаны скорость ветра в м/с и направление, откуда дует ветер: С - северный, СВ - северо-восточный, В - восточный, ЮВ - юго-восточный, Ю - южный, ЮЗ - юго-западный, З - западный, СЗ - северо-западный.
Видимость - горизонтальная дальность видимости в метрах или километрах. При видимости от 1 до 10 км при отсутствии осадков обычно наблюдается дымка, при ухудшении видимости до 1 км и менее - туман. В сухую погоду видимость может ухудшаться дымом, пылью или мглою.
Атмосферные явления - указаны явления, наблюдавшиеся в указанный момент времени.
Облачность - указаны через наклонную черту верхняя и нижняя облачность в баллах и высота нижней границы облаков в метрах. Внимание: облачность, как и прочие метеорологические величины в США измеряются автоматическими метеостанциями. Указанные значения в баллах носят условный характер и показывают процент времени, в течение которого, в среднем, лазерный луч высотомера отражался от облаков обратно.
T - Температура воздуха - температура, измеренная на высоте 2 м над землей.
Td - Температура точки росы - температура, при понижении до которой содержащийся в воздухе водяной пар достигнет насыщения.
f - Относительная влажность воздуха - влажноcть воздуха, измеренная на высоте 2 м над землей.
Te - Эффективная температура - температура, которую ощущает одетый по сезону человек в тени. Характеристика душности погоды. При расчете учитывается влияние влажности воздуха и скорости ветра на теплоощущения человека.
Tes - Эффективная температура на солнце - температура, которую ощущает человек, с поправкой на солнечный нагрев. Характеристика знойности погоды. Зависит от высоты солнца над горизонтом, облачности и скорости ветра. Ночью, в пасмурную погоду, а также при ветре 12 м/с и более поправка равна нулю.
P - Атмосферное давление - приведенное к уровню моря атмосферное давление.
Po - Атмосферное давление - измеренное на уровне метеостанции атмосферное давление.
Tmin - Минимальная температура - минимум температуры воздуха на высоте 2 м над землей.
Tmax - Максимальная температура - максимум температуры воздуха на высоте 2 м над землей.
R - Количество осадков - Количество выпавших осадков за 3 или 6 часов, мм.
SD - Снежный покров - Высота снежного покрова, см.